STARLINK-1672, 46537

Orbit data source: Space-Track

STARLINK-1672, 46537 is a payload satellite owned by SpaceX/Seattle (US) in LEO that was launched on Tue, 06 Oct 2020 UTC via an FALCON 9 launch vehicle from the Air Force Eastern Test Range (AFETR). Payload-class satellites include a variety of spacecraft equipped with specific instruments for various scientific and technological missions. These include communications satellites like Starlink; space stations such as the ISS; scientific satellites like the Hubble; Earth observation satellites from companies like Planet Labs, Umbra, and HawkEye 360; GPS; miniature CubeSats for education and research; and military/defense satellites.

Loading next visibility...
Identifier
46537, 2020-070F
Orbit
LEO
Last TLE update
10 hours ago
Origin
Manufacturer
SpaceX/Seattle
Mission
Operational Commercial Communications
Bus & Motor
STARLINK, Unknown motor
Mass
260 kg wet, ~248 kg dry
Launch date (UTC)
2020-10-06 (5 years ago)
Launch vehicle
FALCON 9
Launch site
Air Force Eastern Test Range (AFETR)
Object type
Payload
Rocket body
Debris
Shape & HBR
Box + 1 Pan, 4.4 m
Radar Cross Section
13.562 m², Large (>1 m²)

Expand to show TLE details & history

TLE from 10 hours ago
0 STARLINK-1672
1 46537U 20070F   25199.55289039  .00000151  00000-0  29016-4 0  9990
2 46537  53.0556 147.7017 0001282  83.5740 276.5395 15.06400568264215
Epoch: 2025-07-18T13:16Z
TLE epoch observation values (Epoch: 2025-07-18T13:16:09.729Z)
Latitude
-0.00003°
Longitude
12.05844°
Altitude
547.988 km
Speed
7.589 km/s
True Right ascension
09h 50m 48s
True Declination
0° 00' 00"
Sunlit
Object was in daylight at epoch
Visualization orbit readout
Latitude
36.23428°
Longitude
156.92623°
Altitude
549.42 km
Speed
7.592 km/s
Apparent Right ascension
21h 40m 29s
Apparent Declination
0° 01' 15"
Sunlit
Object is in full shadow
Visualization observer readout
Local Sidereal Time
12:12:07
Azimuth
50.497° ENE
Elevation
-37.222°
Doppler factor
1
Orbital elements
Apogee altitude
548.368 km
Perigee altitude
546.592 km
Semi-major axis
6,925.617 km
Eccentricity
0.00013
Inclination
53.0556°
RAAN
147.7017°
Arg. of periapsis
83.574°
True anomaly
276.5249°
Mean anomaly
276.5395°
Eccentric anomaly
276.5322°
Mean motion
3.76578 °/min
Orbital period
95.6 mins
BSTAR
0.000029016
Loading maneuver chart data...
Loading SW <> Apogee altitude chart data...
Loading historical data...
Loading historical data...
Loading historical data...
Loading historical data...
Loading historical data...
Loading historical data...
Loading historical data...
|